Flag for Germany Weather past 2 weeks in Sundern (Sauerland), North Rhine-Westphalia, Germany

Now
95 °F

Passing clouds.


Feels Like: 92 °F
Forecast: 73 / 88 °F
Wind: 7 mph from Southeast

Location: Dortmund / Wickede

Current Time: Jul 2, 2015 at 7:09:23 PM

Latest Report: Jul 2, 2015 at 6:50 PM


Visibility: N/A

Pressure: 30.04 "Hg

Humidity: 23%

Dew point: 52 °F

Location of Sundern (Sauerland)Location

Historic Weather in Sundern (Sauerland) — Graph

°F

Sundern (Sauerland) temperature yesterday

Maximum temperature yesterday: 91 °F (at 4:50 PM)
Minimum temperature yesterday: 57 °F (at 5:50 AM)
Average temperature yesterday: 81 °F

Past Weeks' High & Low Weather Summary

 TemperatureHumidityPressure
High97 °F (Jul 2, 2:50 PM)94% (Jun 20, 6:20 AM)30.21 "Hg (Jun 20, 6:20 AM)
Low48 °F (Jun 20, 6:20 AM)22% (Jul 2, 3:20 PM)29.68 "Hg (Jun 22, 7:50 PM)
Average64 °F62%30.05 "Hg
* Reported Jun 17 5:20 PM — Jul 2 5:50 PM, Sundern (Sauerland), Weather by CustomWeather, © 2015

Note: Actual official high and low records may vary slightly from our data, if they occured in-between our weather recording intervals... More about our weather records

Advertising

Sundern (Sauerland) weather history for previous 24 hours

 ConditionsComfort  
Time TempWeatherWind HumidityBarometerVisibility
5:50 PM
Thu, Jul 2
97 °FPassing clouds.7 mph22%30.07 "HgN/A
5:20 PM97 °FPassing clouds.7 mph23%30.07 "HgN/A
4:50 PM97 °FPassing clouds.9 mph22%30.07 "HgN/A
4:20 PM97 °FExtremely hot.7 mph23%30.07 "HgN/A
3:50 PM97 °FPassing clouds.7 mph23%30.07 "HgN/A
3:20 PM97 °FPassing clouds.6 mph22%30.07 "HgN/A
2:50 PM97 °FPassing clouds.6 mph23%30.07 "HgN/A
2:20 PM95 °FSunny.6 mph25%30.07 "Hg10 mi
1:50 PM95 °FPassing clouds.7 mph25%30.07 "HgN/A
1:20 PM93 °FSunny.6 mph28%30.07 "Hg10 mi
12:50 PM93 °FPassing clouds.8 mph26%30.07 "HgN/A
12:20 PM93 °FPassing clouds.8 mph26%30.07 "HgN/A
11:50 AM91 °FPassing clouds.9 mph32%30.07 "HgN/A
11:20 AM90 °FPassing clouds.8 mph31%30.07 "HgN/A
10:50 AM90 °FPassing clouds.9 mph31%30.07 "HgN/A
10:20 AM88 °FPassing clouds.9 mph31%30.07 "HgN/A
9:50 AM86 °FPassing clouds.8 mph35%30.07 "HgN/A
9:20 AM84 °FPassing clouds.6 mph37%30.07 "HgN/A
8:50 AM82 °FPassing clouds.5 mph42%30.07 "HgN/A
8:20 AM81 °FPassing clouds.5 mph42%30.07 "HgN/A
7:50 AM79 °FPassing clouds.5 mph45%30.07 "HgN/A
7:20 AM77 °FSunny.3 mph44%30.07 "Hg10 mi
6:50 AM68 °FSunny.3 mph73%30.07 "Hg10 mi
6:20 AM72 °FSunny.5 mph61%30.07 "Hg10 mi
5:20 AM64 °FClear.2 mph68%30.07 "Hg10 mi
10:50 PM
Wed, Jul 1
79 °FClear.5 mph42%30.07 "Hg10 mi
10:20 PM81 °FSunny.5 mph42%30.04 "Hg10 mi
9:50 PM82 °FSunny.6 mph37%30.04 "Hg10 mi
9:20 PM84 °FSunny.6 mph35%30.04 "Hg10 mi
8:50 PM86 °FSunny.6 mph35%30.04 "Hg10 mi
8:20 PM86 °FSunny.6 mph35%30.04 "Hg10 mi
7:50 PM88 °FSunny.8 mph31%30.04 "Hg10 mi
7:20 PM90 °FPassing clouds.8 mph27%30.01 "HgN/A
Weather by CustomWeather, © 2015

See weather overviewHow to use our weather pages